Presure
196 197 203 200 196 196 210 210 209 199 195 198 218 214 238 205 202 198 195 192 188 184 183 182 183 182 179 177 175 177 183 162 186 157 133 115 119 118 130 155 147 142 134
190 200 197 194 198 198 212 205 204 204 196 193 200 217 213 236 230 202 196 196 196 194 189 184 182 181 181 180 180 180 179 175 180 185 146 177 140 130 119 120 124 123 120
192 205 198 198 190 200 215 212 206 201 195 190 192 202 217 214 209 222 232 217 204 196 195 194 193 192 191 188 186 184 184 184 185 184 184 189 198 200 204 170 126 128 128
198 202 198 193 185 200 194 206 201 195 197 189 194 189 195 207 212 209 206 205 216 228 223 215 205 193 192 193 192 196 192 203 185 184 204 209 209 210 210 209 205 205 189
198 192 195 193 196 192 211 200 199 195 190 191 194 190 195 198 205 204 206 207 204 203 201 201 202 222 226 227 223 220 218 217 217 186 214 216 216 214 212 211 211 214 215
206 195 198 207 184 191 207 202 203 192 193 195 202 193 193 195 200 198 200 201 201 201 201 201 201 202 202 202 199 197 196 193 194 198 202 207 215 216 216 222 224 224 223
196 197 206 201 196 189 206 200 194 195 193 194 201 192 196 190 195 200 196 194 198 199 199 200 198 197 199 199 200 200 201 201 201 201 201 201 202 203 204 203 201 198 197
196 211 198 190 191 201 213 204 203 197 193 190 196 192 192 189 191 187 191 197 201 200 197 198 198 199 200 199 198 198 200 202 202 201 200 199 197 208 209 206 201 201 203
210 195 194 190 197 202 199 201 201 194 193 193 193 190 192 188 183 187 198 200 207 214 213 209 206 203 202 200 200 201 200 197 195 195 199 203 203 202 201 202 203 203 204
191 192 199 205 204 196 198 198 196 199 199 195 196 197 198 198 196 189 201 201 201 202 202 202 203 202 201 206 206 203 206 205 203 202 203 204 208 213 214 214 212 207 213
192 202 194 197 200 199 200 205 202 202 198 200 199 198 196 201 201 200 205 205 204 203 198 197 199 201 202 200 198 198 202 203 204 203 204 205 206 209 209 210 213 216 217
197 190 194 201 196 193 200 203 206 206 206 206 203 201 206 205 201 199 197 197 197 201 204 205 203 201 201 204 207 204 205 209 206 205 205 206 207 211 211 209 209 211 212
194 206 201 188 203 199 198 199 201 203 202 203 205 204 203 204 206 208 208 208 209 206 210 220 216 231 231 227 228 227 225 228 228 227 218 215 214 214 217 210 209 209 211
208 192 200 200 196 197 199 201 203 204 203 204 206 204 206 208 210 213 214 215 219 219 218 216 225 221 217 220 227 218 220 216 219 227 227 234 231 223 220 226 230 231 236
194 197 191 199 196 203 198 197 206 213 213 215 216 220 219 213 213 218 222 223 223 220 221 223 221 212 209 247 247 205 222 244 256 243 243 236 239 258 252 241 229 223 247
201 204 198 194 219 218 223 226 227 224 222 221 226 225 221 221 219 215 217 220 205 203 202 207 213 221 244 238 246 240 221 239 227 227 237 234 237 243 237 234 239 248 253
195 191 228 233 218 220 219 225 224 221 214 207 215 219 216 212 210 211 211 214 235 245 236 236 236 245 247 243 245 247 233 222 229 217 218 222 250 235 223 224 223 248 241
225 228 211 221 228 231 224 214 216 217 214 213 207 205 208 215 218 225 239 229 225 237 236 233 234 220 239 232 207 267 265 262 279 279 279 283 279 275 275 276 276 277 273
211 208 215 226 214 215 218 216 217 217 216 209 214 215 227 231 236 235 235 241 247 226 234 236 235 244 280 280 270 266 267 273 275 271 267 268 266 263 263 264 268 271 273
225 230 226 226 221 216 211 211 216 221 220 219 224 228 245 252 253 252 240 236 236 239 246 265 280 276 273 268 268 270 267 261 248 241 243 242 240 250 252 257 245 241 251
224 222 219 218 216 215 218 225 235 245 246 242 238 237 239 229 233 245 249 259 288 281 279 278 281 326 353 327 357 348 352 313 285 280 276 270 278 270 287 286 280 271 277
222 219 215 221 230 236 229 218 229 230 227 229 233 238 254 275 285 277 275 329 344 356 348 315 321 325 319 316 317 317 324 324 323 321 319 314 308 310 315 314 316 311 315
231 227 220 218 225 225 225 234 252 254 269 278 280 277 271 349 350 336 311 304 310 301 307 318 306 293 301 300 303 306 300 298 297 301 305 307 308 311 336 333 328 326 321
214 230 249 248 255 273 273 269 268 273 282 354 330 309 301 302 307 326 346 406 403 400 394 391 387 381 378 374 369 366 364 365 357 351 345 337 332 325 318 311 307 303 296
249 252 267 267 261 269 280 295 318 350 309 305 405 415 414 411 406 400 395 391 383 376 371 365 363 358 354 350 347 344 339 338 335 328 324 318 311 302 293 281 266 258 256
273 265 283 282 293 307 340 330 296 424 417 413 410 405 399 389 378 370 362 357 354 348 345 340 337 334 330 326 323 317 315 313 310 305 297 270 257 252 251 274 269 262 254
Wind_Speed
47 45 39 40 40 40 38 34 36 40 41 39 36 40 42 47 49 51 53 55 57 58 59 59 59 59 60 60 61 61 61 61 62 66 63 59 59 58 59 63 63 63 61
51 45 43 42 42 41 37 36 37 37 41 43 40 39 42 40 45 52 54 56 58 59 61 63 64 64 64 65 65 66 66 66 66 65 66 67 68 67 63 63 64 63 62
53 45 45 43 44 41 37 38 37 40 44 45 44 41 39 44 48 48 49 54 58 60 62 64 66 67 68 69 69 70 70 70 70 70 70 69 69 69 68 68 69 70 69
51 48 47 46 48 41 42 38 38 42 44 48 45 49 47 43 46 50 53 55 54 54 58 62 65 68 69 70 71 71 72 71 73 73 70 69 69 69 68 68 68 68 67
51 52 50 49 47 46 43 42 42 44 48 49 48 51 48 49 48 50 51 54 57 59 62 63 64 59 61 63 66 68 69 70 70 76 71 71 71 71 71 70 70 69 69
52 52 52 50 52 50 45 45 48 50 50 50 49 52 52 52 51 53 53 55 57 59 61 63 65 67 68 70 72 73 75 76 76 75 74 72 70 70 69 67 67 66 66
55 54 52 51 52 53 51 51 52 53 54 54 52 55 55 58 56 56 59 62 62 63 65 67 69 71 71 72 72 73 74 75 76 77 77 77 76 75 75 75 75 76 75
56 55 54 55 56 56 53 54 55 57 58 59 56 59 60 62 62 63 64 64 65 68 70 71 73 74 75 76 77 78 78 78 79 80 81 81 81 78 78 78 78 77 77
58 58 58 60 60 58 56 57 59 61 62 62 64 65 66 67 69 69 67 67 65 66 68 70 73 76 78 80 80 82 83 84 84 85 84 84 84 84 84 83 83 82 81
63 63 64 63 62 61 62 62 63 63 64 66 67 68 69 71 71 74 70 70 69 69 71 73 75 77 80 80 81 84 84 85 87 88 88 89 89 87 86 86 86 86 84
68 68 66 66 67 66 67 66 66 67 68 69 70 71 73 73 73 74 72 72 73 75 77 79 81 83 84 86 87 88 89 89 90 91 91 92 93 93 92 90 89 88 89
71 71 72 72 70 70 71 71 71 71 72 73 74 75 75 75 76 77 78 79 80 81 82 84 86 88 89 90 92 92 93 95 96 96 95 95 96 98 97 94 93 93 91
75 78 76 74 74 75 75 75 75 76 77 78 78 79 79 80 82 83 83 84 85 86 87 89 89 89 87 89 91 92 94 95 96 98 101 101 101 102 101 98 98 96 95
79 78 79 79 79 79 79 80 80 80 81 82 83 84 85 86 86 87 88 90 91 91 90 90 90 91 93 94 95 96 97 99 100 100 100 102 103 103 103 103 103 102 100
81 81 82 83 83 85 84 85 87 88 88 89 90 89 89 89 90 91 91 92 93 94 94 94 94 93 94 98 98 99 100 99 98 98 100 103 102 99 101 103 104 103 99
82 84 85 85 87 88 87 87 87 87 89 89 89 89 90 91 91 93 94 95 96 96 97 98 98 99 103 102 102 102 93 100 102 104 103 103 102 102 103 104 102 100 102
86 87 91 88 89 90 91 89 89 90 91 93 93 94 94 96 97 98 99 99 105 107 106 106 106 107 106 104 105 106 107 109 108 110 110 108 107 108 110 110 109 106 106
93 91 92 92 91 90 91 94 95 96 98 99 98 99 101 103 104 109 111 109 108 111 109 108 109 106 111 112 111 112 108 108 108 108 108 108 109 110 112 113 113 113 110
96 96 97 94 96 97 98 100 101 103 104 103 106 107 113 115 116 115 115 118 119 112 115 115 114 118 116 113 113 111 109 108 107 107 107 107 107 107 107 107 108 107 107
100 99 100 100 100 101 103 104 107 109 109 110 113 115 119 121 122 122 118 117 119 121 124 125 121 118 116 115 115 114 112 110 107 105 106 106 107 111 110 111 108 108 109
103 104 104 105 107 108 111 114 116 117 118 119 121 121 122 118 122 126 128 128 127 125 124 123 121 113 104 112 102 105 102 109 112 111 110 112 113 113 109 110 111 112 110
107 108 109 112 115 117 116 116 118 120 120 121 124 127 130 130 127 126 126 112 107 101 101 106 102 99 98 98 97 97 93 95 95 96 96 96 98 97 96 97 97 98 97
111 112 113 115 117 118 120 124 127 128 129 128 128 127 126 106 104 106 109 107 106 106 106 103 103 101 100 98 97 97 95 93 93 93 93 94 94 94 85 85 86 85 85
115 119 122 124 125 124 123 123 125 126 124 110 110 110 109 108 107 103 100 75 72 70 69 69 70 71 72 73 74 77 78 77 78 79 81 82 83 83 83 83 85 84 86
122 123 125 123 122 123 124 124 122 111 110 109 87 80 77 75 72 69 67 65 64 64 65 66 66 66 67 68 69 71 73 74 74 76 76 77 78 79 81 83 85 86 87
122 122 122 121 123 123 116 111 109 77 76 74 72 71 69 67 66 66 66 66 65 65 65 65 66 65 65 67 68 69 70 72 72 72 72 75 78 81 84 88 89 90 90
Wind_Direction
281 280 281 279 279 279 284 277 265 260 262 260 260 256 254 252 251 250 250 250 250 251 252 253 254 254 255 255 255 255 257 255 259 254 251 249 250 252 253 250 248 251 255
279 279 276 277 280 281 280 271 267 261 258 259 259 258 255 255 254 252 252 253 252 252 253 253 254 254 255 255 256 257 257 256 258 260 254 260 253 251 250 252 253 255 255
278 278 275 278 277 279 276 271 263 260 259 261 260 261 260 256 255 255 254 254 255 255 255 255 255 256 256 257 258 258 259 260 260 261 261 264 266 267 268 261 251 252 253
277 276 273 275 276 275 273 268 262 258 259 260 260 262 259 259 258 256 256 256 256 257 258 257 257 257 258 259 260 261 260 263 261 261 266 267 267 267 267 268 267 267 263
274 274 274 275 275 274 275 270 265 259 259 260 258 260 259 259 258 258 258 258 258 259 259 260 260 261 262 262 262 263 264 265 265 263 265 266 266 266 266 266 266 267 267
270 270 271 273 273 274 276 267 266 264 263 261 260 260 261 260 260 258 258 258 258 259 260 261 261 261 261 262 262 263 263 264 264 265 265 265 266 267 267 268 268 268 267
269 271 272 271 271 271 274 267 264 263 263 263 261 261 260 261 261 260 260 261 260 259 259 259 260 260 261 261 262 263 264 264 265 266 266 267 267 266 266 266 266 266 265
270 271 269 269 271 273 269 266 266 264 264 265 263 262 262 263 262 262 262 261 262 262 262 262 262 263 263 263 263 263 264 264 264 265 266 266 266 267 267 266 266 266 266
271 271 270 268 271 270 268 267 265 264 264 265 265 266 265 265 266 265 264 264 265 264 263 263 262 262 263 263 264 264 264 265 266 266 266 266 266 266 266 266 266 266 266
271 270 272 272 271 271 270 268 266 265 264 264 264 264 264 265 265 267 266 265 264 263 262 262 262 262 262 263 263 263 263 264 265 265 266 266 266 265 265 265 265 266 266
271 273 274 274 272 272 272 272 271 269 268 267 267 267 267 267 267 267 268 267 266 265 264 263 263 263 262 263 264 265 265 264 264 265 265 266 267 267 267 267 266 266 266
272 272 275 276 277 276 274 273 272 271 270 269 268 268 269 268 267 267 266 266 266 266 266 266 265 265 266 266 266 266 266 265 265 265 266 266 267 266 267 269 268 267 267
272 273 273 275 274 275 276 275 274 273 271 271 271 270 269 270 270 270 270 269 269 268 267 266 266 267 267 266 266 265 264 264 263 263 264 265 265 266 266 268 268 269 269
271 273 273 274 274 275 275 275 275 275 274 273 273 272 272 271 271 270 270 270 269 269 268 267 268 265 264 264 265 264 264 264 265 264 264 264 263 263 263 263 263 264 264
270 271 273 274 275 276 276 276 276 275 274 273 273 272 272 272 272 271 272 272 272 271 271 272 271 269 266 276 274 265 266 271 273 269 268 265 265 267 265 263 262 263 265
270 271 271 272 276 276 275 273 272 271 272 272 272 272 272 272 271 270 270 271 270 270 270 270 270 272 277 274 274 272 270 270 266 266 267 266 266 266 264 263 263 264 268
270 271 278 277 276 277 276 275 275 275 274 273 275 276 275 274 272 272 272 273 277 279 278 277 276 278 277 275 274 273 270 268 268 267 267 267 269 266 265 264 264 266 263
277 277 276 278 277 276 276 276 276 276 276 276 275 276 276 277 277 278 278 277 276 278 277 276 277 271 276 272 268 275 272 271 271 270 270 269 268 267 267 268 269 269 268
275 275 276 277 276 276 276 276 277 277 277 276 277 277 278 278 279 278 278 278 278 275 276 276 275 276 276 274 272 272 272 271 270 269 269 268 268 267 267 268 267 267 267
276 276 276 276 276 276 276 276 277 278 278 278 278 279 279 279 279 279 279 279 278 278 279 278 278 277 275 273 271 270 269 268 269 268 268 267 267 267 267 267 266 265 266
278 277 277 277 278 278 279 279 279 279 279 278 279 279 280 280 280 279 279 279 279 278 277 276 276 274 271 272 270 269 268 268 267 266 266 265 266 266 267 267 266 267 267
277 277 278 278 279 279 279 279 279 279 279 279 279 279 279 280 279 279 278 278 277 275 275 275 275 274 273 272 271 271 270 269 269 268 267 266 266 266 266 265 265 265 265
278 277 276 276 278 278 278 280 280 280 280 280 281 280 280 280 279 278 279 278 277 276 275 274 273 272 271 270 270 269 268 267 267 267 266 266 266 265 263 263 263 263 263
277 279 282 281 282 283 283 282 281 281 282 283 281 280 280 279 278 278 277 278 276 275 274 272 271 269 268 267 265 265 264 263 262 261 260 260 260 261 262 263 263 262 262
282 283 284 283 283 283 284 284 285 283 282 281 281 280 279 279 279 279 277 275 274 272 272 271 271 270 269 267 266 264 264 263 262 261 261 261 261 261 261 261 263 263 263
283 283 284 284 285 285 284 284 283 281 280 280 280 280 279 279 278 277 276 274 273 272 271 270 269 268 267 266 265 265 265 264 264 263 262 262 263 263 264 264 265 265 266